Taisho Maru — JI3307 — position and weather

sailwx.info

Track history (hours):
 
Tides and Currents Weather Stations Pressure Air Temp Water Temp Dewpoint Dewpoint Depression Visibility Wind Speed Wind Dir Waves Ship Positions

Taisho Maru

Last reported at 2014-Oct-25 06:17 UTC. Time now 2014-Oct-25 17:38 UTC.
Position N 34°38' E 134°51'.

Length 93 m; draft 4.8 m.

Type: Cargo ship. MMSI: 431300084.

Date/timePositionNaut miles runAvg speedWind from/ knotsBaromVisibWave heightAir tempDewpointWater temp
2014-Oct-25 06:17N 34°38' E 134°51'911.7
2014-Oct-25 05:32N 34°37' E 135°01'1212.5
2014-Oct-25 04:33N 34°37' E 135°16'9 9.4
2014-Oct-25 03:33N 34°40' E 135°27'0 0.0
2014-Oct-25 02:31N 34°40' E 135°27'0 0.0
2014-Oct-24 23:07N 34°40' E 135°27'1 1.1
2014-Oct-24 22:33N 34°40' E 135°26'7 6.6
2014-Oct-24 21:33N 34°36' E 135°19'0 0.3
2014-Oct-24 20:29N 34°36' E 135°19'0 0.0
2014-Oct-24 19:23N 34°36' E 135°19'0 0.0
2014-Oct-24 18:29N 34°36' E 135°19'0 0.1
2014-Oct-24 17:29N 34°36' E 135°19'0 0.0
2014-Oct-24 16:23N 34°36' E 135°19'0 0.0
2014-Oct-24 15:29N 34°36' E 135°19'0 0.0
2014-Oct-24 14:29N 34°36' E 135°19'0 0.0
2014-Oct-24 13:23N 34°36' E 135°19'0 0.0
2014-Oct-24 12:29N 34°36' E 135°19'0 0.0
2014-Oct-24 11:29N 34°36' E 135°19'0 0.0
2014-Oct-24 10:29N 34°36' E 135°19'0 0.0
2014-Oct-24 09:17N 34°36' E 135°19'0 0.3
2014-Oct-24 08:33N 34°36' E 135°19'1111.4
2014-Oct-24 07:33N 34°27' E 135°10'1312.2
2014-Oct-24 06:30N 34°18' E 134°59'1111.7
2014-Oct-24 05:33N 34°08' E 135°06'2 0.4
2014-Oct-23 23:32N 34°07' E 135°08'5 4.9
2014-Oct-23 22:33N 34°05' E 135°03'9 0.3
2014-Oct-22 17:32N 33°59' E 134°54'1515.2
2014-Oct-22 16:33N 34°14' E 134°58'1515.2
2014-Oct-22 15:34N 34°27' E 135°07'1313.2
2014-Oct-22 14:33N 34°36' E 135°18'0 0.2
2014-Oct-22 13:28N 34°36' E 135°19'0 0.0
2014-Oct-22 12:28N 34°36' E 135°19'0 0.0
2014-Oct-22 11:16N 34°36' E 135°19'0 0.0
2014-Oct-22 10:28N 34°36' E 135°19'4 4.1
2014-Oct-22 09:33N 34°38' E 135°23'4 4.1
2014-Oct-22 08:33N 34°40' E 135°27'0 0.0
2014-Oct-22 07:33N 34°40' E 135°27'0 0.0
2014-Oct-22 06:26N 34°40' E 135°27'0 0.0
2014-Oct-22 01:26N 34°40' E 135°27'0 0.0
2014-Oct-22 00:26N 34°40' E 135°27'0 0.0
2014-Oct-21 23:32N 34°40' E 135°27'1 1.2
2014-Oct-21 22:33N 34°39' E 135°26'7 6.2
2014-Oct-21 21:29N 34°36' E 135°19'0 0.0
2014-Oct-21 20:23N 34°36' E 135°19'0 0.1
2014-Oct-21 19:29N 34°36' E 135°19'0 0.0
2014-Oct-21 18:29N 34°36' E 135°19'0 0.0
2014-Oct-21 17:29N 34°36' E 135°19'0 0.1
2014-Oct-21 16:29N 34°36' E 135°19'0 0.1
2014-Oct-21 15:34N 34°36' E 135°19'9 8.7
2014-Oct-21 14:33N 34°35' E 135°08'1313.0
2014-Oct-21 13:33N 34°37' E 134°53'3 0.1
2014-Oct-20 05:26N 34°38' E 134°49'1112.9
2014-Oct-20 04:33N 34°37' E 135°03'1211.7
2014-Oct-20 03:32N 34°24' E 135°02'1313.3
2014-Oct-20 02:34N 34°12' E 134°59'24411.6
2014-Oct-19 05:31N 35°13' E 139°46'1212.2
2014-Oct-19 04:34N 35°24' E 139°42'2 1.5
2014-Oct-19 03:33N 35°26' E 139°41'0 0.0
2014-Oct-19 02:32N 35°26' E 139°41'0 0.0
2014-Oct-19 01:32N 35°26' E 139°41'0 0.0
2014-Oct-19 00:32N 35°26' E 139°41'0 0.0
2014-Oct-18 23:32N 35°26' E 139°41'1 0.8
2014-Oct-18 22:33N 35°25' E 139°42'0 0.0
2014-Oct-18 21:32N 35°25' E 139°42'0 0.0
2014-Oct-18 20:32N 35°25' E 139°42'0 0.0
2014-Oct-18 19:29N 35°25' E 139°42'0 0.0
2014-Oct-18 18:32N 35°25' E 139°42'0 0.0
2014-Oct-18 17:32N 35°25' E 139°42'0 0.0
2014-Oct-18 16:32N 35°25' E 139°42'0 0.0
2014-Oct-18 15:32N 35°25' E 139°42'0 0.1
2014-Oct-18 14:32N 35°25' E 139°42'0 0.0
2014-Oct-18 13:32N 35°25' E 139°42'0 0.0
2014-Oct-18 12:29N 35°25' E 139°42'2 1.8
2014-Oct-18 11:33N 35°26' E 139°44'14 0.6
2014-Oct-17 12:31N 35°34' E 139°58'1111.5
2014-Oct-17 11:33N 35°26' E 139°48'1010.0
2014-Oct-17 10:33N 35°16' E 139°46'247 9.9
2014-Oct-16 09:33N 34°01' E 135°00'1212.5
2014-Oct-16 08:34N 34°13' E 135°05'3 2.7
2014-Oct-16 07:34N 34°14' E 135°08'0 0.0
2014-Oct-16 06:33N 34°14' E 135°08'0 0.0
2014-Oct-16 05:33N 34°14' E 135°08'0 0.0
2014-Oct-16 04:33N 34°14' E 135°08'0 0.0
2014-Oct-16 03:33N 34°14' E 135°08'0 0.0
2014-Oct-16 02:33N 34°14' E 135°08'0 0.0
2014-Oct-16 01:33N 34°14' E 135°08'0 0.0
2014-Oct-16 00:30N 34°14' E 135°08'0 0.1
2014-Oct-15 23:33N 34°14' E 135°08'0 0.1
2014-Oct-15 22:33N 34°14' E 135°08'0 0.0
2014-Oct-15 21:33N 34°14' E 135°08'0 0.0
2014-Oct-15 20:33N 34°14' E 135°08'0 0.0
2014-Oct-15 19:33N 34°14' E 135°08'2 2.4
2014-Oct-15 18:33N 34°15' E 135°05'1212.0
2014-Oct-15 17:33N 34°03' E 135°01'  
Track history (hours):
 
Tides and Currents Weather Stations Pressure Air Temp Water Temp Dewpoint Dewpoint Depression Visibility Wind Speed Wind Dir Waves Ship Positions

Taisho Maru

Last reported at 2014-Oct-25 06:17 UTC. Time now 2014-Oct-25 17:38 UTC.
Position N 34°38' E 134°51'.

Length 93 m; draft 4.8 m.

Type: Cargo ship. MMSI: 431300084.

Date/timePositionNaut miles runAvg speedWind from/ knotsBaromVisibWave heightAir tempDewpointWater temp
2014-Oct-25 06:17N 34°38' E 134°51'911.7
2014-Oct-25 05:32N 34°37' E 135°01'1212.5
2014-Oct-25 04:33N 34°37' E 135°16'9 9.4
2014-Oct-25 03:33N 34°40' E 135°27'0 0.0
2014-Oct-25 02:31N 34°40' E 135°27'0 0.0
2014-Oct-24 23:07N 34°40' E 135°27'1 1.1
2014-Oct-24 22:33N 34°40' E 135°26'7 6.6
2014-Oct-24 21:33N 34°36' E 135°19'0 0.3
2014-Oct-24 20:29N 34°36' E 135°19'0 0.0
2014-Oct-24 19:23N 34°36' E 135°19'0 0.0
2014-Oct-24 18:29N 34°36' E 135°19'0 0.1
2014-Oct-24 17:29N 34°36' E 135°19'0 0.0
2014-Oct-24 16:23N 34°36' E 135°19'0 0.0
2014-Oct-24 15:29N 34°36' E 135°19'0 0.0
2014-Oct-24 14:29N 34°36' E 135°19'0 0.0
2014-Oct-24 13:23N 34°36' E 135°19'0 0.0
2014-Oct-24 12:29N 34°36' E 135°19'0 0.0
2014-Oct-24 11:29N 34°36' E 135°19'0 0.0
2014-Oct-24 10:29N 34°36' E 135°19'0 0.0
2014-Oct-24 09:17N 34°36' E 135°19'0 0.3
2014-Oct-24 08:33N 34°36' E 135°19'1111.4
2014-Oct-24 07:33N 34°27' E 135°10'1312.2
2014-Oct-24 06:30N 34°18' E 134°59'1111.7
2014-Oct-24 05:33N 34°08' E 135°06'2 0.4
2014-Oct-23 23:32N 34°07' E 135°08'5 4.9
2014-Oct-23 22:33N 34°05' E 135°03'9 0.3
2014-Oct-22 17:32N 33°59' E 134°54'1515.2
2014-Oct-22 16:33N 34°14' E 134°58'1515.2
2014-Oct-22 15:34N 34°27' E 135°07'1313.2
2014-Oct-22 14:33N 34°36' E 135°18'0 0.2
2014-Oct-22 13:28N 34°36' E 135°19'0 0.0
2014-Oct-22 12:28N 34°36' E 135°19'0 0.0
2014-Oct-22 11:16N 34°36' E 135°19'0 0.0
2014-Oct-22 10:28N 34°36' E 135°19'4 4.1
2014-Oct-22 09:33N 34°38' E 135°23'4 4.1
2014-Oct-22 08:33N 34°40' E 135°27'0 0.0
2014-Oct-22 07:33N 34°40' E 135°27'0 0.0
2014-Oct-22 06:26N 34°40' E 135°27'0 0.0
2014-Oct-22 01:26N 34°40' E 135°27'0 0.0
2014-Oct-22 00:26N 34°40' E 135°27'0 0.0
2014-Oct-21 23:32N 34°40' E 135°27'1 1.2
2014-Oct-21 22:33N 34°39' E 135°26'7 6.2
2014-Oct-21 21:29N 34°36' E 135°19'0 0.0
2014-Oct-21 20:23N 34°36' E 135°19'0 0.1
2014-Oct-21 19:29N 34°36' E 135°19'0 0.0
2014-Oct-21 18:29N 34°36' E 135°19'0 0.0
2014-Oct-21 17:29N 34°36' E 135°19'0 0.1
2014-Oct-21 16:29N 34°36' E 135°19'0 0.1
2014-Oct-21 15:34N 34°36' E 135°19'9 8.7
2014-Oct-21 14:33N 34°35' E 135°08'1313.0
2014-Oct-21 13:33N 34°37' E 134°53'3 0.1
2014-Oct-20 05:26N 34°38' E 134°49'1112.9
2014-Oct-20 04:33N 34°37' E 135°03'1211.7
2014-Oct-20 03:32N 34°24' E 135°02'1313.3
2014-Oct-20 02:34N 34°12' E 134°59'24411.6
2014-Oct-19 05:31N 35°13' E 139°46'1212.2
2014-Oct-19 04:34N 35°24' E 139°42'2 1.5
2014-Oct-19 03:33N 35°26' E 139°41'0 0.0
2014-Oct-19 02:32N 35°26' E 139°41'0 0.0
2014-Oct-19 01:32N 35°26' E 139°41'0 0.0
2014-Oct-19 00:32N 35°26' E 139°41'0 0.0
2014-Oct-18 23:32N 35°26' E 139°41'1 0.8
2014-Oct-18 22:33N 35°25' E 139°42'0 0.0
2014-Oct-18 21:32N 35°25' E 139°42'0 0.0
2014-Oct-18 20:32N 35°25' E 139°42'0 0.0
2014-Oct-18 19:29N 35°25' E 139°42'0 0.0
2014-Oct-18 18:32N 35°25' E 139°42'0 0.0
2014-Oct-18 17:32N 35°25' E 139°42'0 0.0
2014-Oct-18 16:32N 35°25' E 139°42'0 0.0
2014-Oct-18 15:32N 35°25' E 139°42'0 0.1
2014-Oct-18 14:32N 35°25' E 139°42'0 0.0
2014-Oct-18 13:32N 35°25' E 139°42'0 0.0
2014-Oct-18 12:29N 35°25' E 139°42'2 1.8
2014-Oct-18 11:33N 35°26' E 139°44'14 0.6
2014-Oct-17 12:31N 35°34' E 139°58'1111.5
2014-Oct-17 11:33N 35°26' E 139°48'1010.0
2014-Oct-17 10:33N 35°16' E 139°46'247 9.9
2014-Oct-16 09:33N 34°01' E 135°00'1212.5
2014-Oct-16 08:34N 34°13' E 135°05'3 2.7
2014-Oct-16 07:34N 34°14' E 135°08'0 0.0
2014-Oct-16 06:33N 34°14' E 135°08'0 0.0
2014-Oct-16 05:33N 34°14' E 135°08'0 0.0
2014-Oct-16 04:33N 34°14' E 135°08'0 0.0
2014-Oct-16 03:33N 34°14' E 135°08'0 0.0
2014-Oct-16 02:33N 34°14' E 135°08'0 0.0
2014-Oct-16 01:33N 34°14' E 135°08'0 0.0
2014-Oct-16 00:30N 34°14' E 135°08'0 0.1
2014-Oct-15 23:33N 34°14' E 135°08'0 0.1
2014-Oct-15 22:33N 34°14' E 135°08'0 0.0
2014-Oct-15 21:33N 34°14' E 135°08'0 0.0
2014-Oct-15 20:33N 34°14' E 135°08'0 0.0
2014-Oct-15 19:33N 34°14' E 135°08'2 2.4
2014-Oct-15 18:33N 34°15' E 135°05'1212.0
2014-Oct-15 17:33N 34°03' E 135°01'  

Dump ship's entire track history